www.pogodaiklimat.ru

Погода и климат >> Архив погоды >> Украина >> Сарата


ПОГОДА в Сарате

  • Прогноз погоды в Сарате
  • Монитор погоды в Сарате

АРХИВ ПОГОДЫ в Сарате

Время (UTC), дата Ветер
(напр.,м/с)
 
Видим.   Явления Облачность Т
(С)
Тd
(С)
f
(%)
Тe
(С)
Тes
(С)
Комфортность P
(гПа)
Po
(гПа)
Тmin
(С)
Tmax
(С)
R
(мм)
R24
(мм)
S
(см)
03 14.06 СВ 3 11 км 6/0
[Ci sp]
+19.7 +16.9 84 +22 +23 комфорт 1015.5 1013.8
06 14.06 СВ 4 20 км 3/0
[Ci fib]
+25.8 +16.7 57 +29 +35 душно 1015.8 1014.2 +19.2 0.4
09 14.06 В 5 20 км 10/0
[Ci fib]
+30.7 +17.8 46 +35 +43 очень
душно
1016.1 1014.5
12 14.06 В 4 20 км 10/0
[Ci sp]
+31.5 +14.7 36 +33 +42 жарко 1016.0 1014.5
15 14.06 В 5 20 км 9/0
[Ac trans]
+33.0 +12.0 28 +33 +34 жарко 1014.7 1013.1
18 14.06 С 3 20 км 10/0
[Ac und]
+26.9 +17.1 55 +31 +31 душно 1015.9 1014.3 +33.4
21 14.06 С 1 10 км 10/0
[Ac und]
+24.0 +17.5 67 +28 +28 душно 1016.8 1015.2
00 15.06 СВ 2 10 км 10/0
[Ac und]
+22.4 +17.9 76 +27 +27 душно 1015.9 1014.3
03 15.06 СВ 2 10 км 10/0
[Ci fib]
+20.5 +17.9 85 +25 +25 комфорт 1015.5 1013.8
06 15.06 СВ 2 20 км 3/0
[Ci sp]
+27.6 +20.0 63 +34 +41 очень
душно
1015.9 1014.3 +20.4
09 15.06 В 4 20 км 8/5 600 м
[Cu med, cong Ci sp]
+32.3 +16.1 38 +35 +41 очень
душно
1014.8 1013.2
12 15.06 В 4 20 км 8/6 600 м
[Cb calv Ci sp]
+30.4 +14.9 39 +33 +36 душно 1013.1 1011.6
18 15.06 С 2 20 км {гроза} 6/0
[Ci sp]
+25.2 +17.6 63 +29 +29 душно 1012.8 1011.2 +33.7
21 15.06 штиль 0 4000 м дымка 3/0
[Ci fib]
+20.8 +18.5 87 +25 +25 комфорт 1013.5 1011.9
00 16.06 СВ 2 4000 м дымка ясно +18.5 +17.7 95 +20 +20 1012.4 1010.8
03 16.06 СВ 3 4700 м дымка ясно +18.4 +17.9 97 +19 +20 1012.0 1010.3
06 16.06 СВ 2 20 км ясно +27.5 +20.8 67 +34 +43 очень
душно
1012.5 1010.9 +18.0
09 16.06 ЮВ 4 20 км 8/6 600 м
[Cu med, cong Ci sp]
+32.5 +15.5 36 +35 +39 душно 1012.5 1010.9
12 16.06 В 5 20 км ясно +33.7 +13.2 29 +34 +43 очень
жарко
1011.7 1010.2
15 16.06 Ю 2 20 км 9/6 600 м
[Cb calv Ci sp]
+32.9 +13.0 30 +34 +35 очень
жарко
1010.9 1009.3
18 16.06 СЗ 2 20 км 4/4 600 м
[Sc]
+28.7 +16.3 47 +32 +32 душно 1011.6 1010.0 +34.1
21 16.06 С 2 10 км ясно +24.6 +16.3 60 +28 +28 душно 1012.0 1010.4
00 17.06 СВ 3 10 км ясно +21.7 +17.7 78 +26 +26 душно 1012.3 1010.7
03 17.06 СВ 2 9000 м дымка ясно +19.8 +17.4 86 +23 +23 комфорт 1013.6 1011.9
06 17.06 СВ 3 20 км ясно +28.5 +15.8 46 +32 +38 душно 1013.6 1012.0 +19.6
09 17.06 В 5 20 км 4/0
[Ci fib]
+31.1 +11.0 29 +31 +40 жарко 1013.7 1012.1
12 17.06 В 4 20 км 6/0
[Ci sp]
+32.7 +12.4 29 +33 +42 жарко 1013.2 1011.7
15 17.06 В 3 20 км 8/0
[Ci sp]
+32.5 +15.1 35 +35 +38 душно 1012.1 1010.5
18 17.06 штиль 0 20 км 6/0
[Cc]
+27.6 +14.6 45 +30 +30 жарко 1013.6 1012.0 +33.5
21 17.06 штиль 0 10 км 8/8 600 м
[Sc]
+21.5 +15.8 70 +25 +25 комфорт 1014.9 1013.3
00 18.06 СВ 4 10 км 6/6 600 м
[Sc]
+21.9 +17.1 74 +26 +26 душно 1014.9 1013.3
03 18.06 СВ 4 10 км ясно +19.5 +16.9 85 +22 +22 комфорт 1015.0 1013.3
06 18.06 В 4 20 км ясно +27.1 +17.6 56 +31 +37 душно 1015.3 1013.7 +19.4
09 18.06 В 3 20 км 10/8 1000 м
[Cu hum Ci fib]
+31.8 +14.9 36 +34 +36 душно 1015.2 1013.6
12 18.06 В 3 20 км 9/9 1000 м
[Cu med, cong]
+32.5 +14.6 34 +34 +36 очень
жарко
1013.9 1012.4
15 18.06 Ю 3 20 км 3/3 1000 м
[Cu hum]
+30.6 +12.0 32 +31 +34 жарко 1012.9 1011.3
18 18.06 штиль 0 20 км 4/4 600 м
[Cb calv]
+23.7 +15.2 59 +27 +27 жарко 1014.2 1012.6 +33.0
00 19.06 С 2 4000 м дымка ясно +21.1 +18.8 87 +25 +25 комфорт 1014.2 1012.6
06 19.06 СВ 3 20 км ясно +27.0 +20.3 67 +33 +40 очень
душно
1013.9 1012.3 +18.5
12 19.06 СЗ 4 20 км гроза без осадков {ливн. осадки} 10/10 600 м
[Cb cap]
+26.2 +18.8 64 +31 +31 очень
душно
1013.0 1011.4
18 19.06 СВ 1 13 км {гроза, ливн. осадки} 3/3 600 м
[Cb calv]
+24.2 +20.5 80 +30 +30 очень
душно
1012.0 1010.4 +31.8 3
00 20.06 С 1 4000 м дымка 8/8 600 м
[Sc]
+21.6 +19.6 88 +27 +27 душно 1011.9 1010.3
06 20.06 СВ 3 20 км 9/0
[Ci sp]
+28.1 +19.6 60 +34 +39 очень
душно
1011.9 1010.3 +19.8
12 20.06 З 2 20 км гроза без осадков 9/9 600 м
[Cb calv]
+32.1 +17.2 41 +36 +37 очень
душно
1010.5 1009.0
18 20.06 С 1 20 км {гроза} 3/0
[Ci fib]
+27.0 +17.5 56 +31 +31 душно 1011.2 1009.6 +33.6

 

Местоположение метеостанции Сарата (Одесская область, Украина): широта 46.02 долгота 29.67 высота над уровнем моря 14 м.

В архиве по умолчанию представлена погода в Сарате за последнюю неделю. Архивные данные за месяц целиком и за предыдущие месяцы, начиная с января 2011 года, Вы можете получить, выбрав интересующий диапазон дат из раскрывающегося списка и нажав кнопку "Ввод!".


*Определитесь, кто Вы:
робот инопланетянин человек

Внимание! Время в таблицах - всемирное. Для получения местного времени необходимо прибавить поправку, которая равна 2 ч.

Смотрите также архив погоды в соседних городах и на ближайших метеорологических станциях:

Погода в Вилково (Одесская область, Украина) (23 км)
Погода в Белгород-Днестровском (Одесская область, Украина) (57 км)
Погода в Штефан Водэ (Молдова) (58 км)
Погода в Чадыр-Лунге (Молдова) (60 км)
Погода в Комрате (Молдова) (86 км)
Погода в Ильичевске (Одесская область, Украина) (90 км)
Погода в Болграде (Одесская область, Украина) (90 км)
Погода в Заставе (Одесская область, Украина) (90 км)
Погода в Сулине (Румыния) (95 км)
Погода в Одессе (Одесская область, Украина) (96 км)

Пояснения к столбцам:

Ветер - указаны скорость ветра в м/с - средняя за 10 мин, порывы в срок и между сроками (в фигурных скобках) и направление, откуда дует ветер: С - северный, СВ - северо-восточный, В - восточный, ЮВ - юго-восточный, Ю - южный, ЮЗ - юго-западный, З - западный, СЗ - северо-западный.
Видимость - горизонтальная дальность видимости в метрах или километрах. При видимости от 1 до 10 км при отсутствии осадков обычно наблюдается дымка, при ухудшении видимости до 1 км и менее - туман. В сухую погоду видимость может ухудшаться дымом, пылью или мглою.
Явления - указаны атмосферные явления, наблюдавшиеся в срок или в последний час перед сроком; фигурными скобками обозначены явления, наблюдавшиеся между сроками (за 1-3 часа до срока); квадратными скобками обозначены град или гололедные отложения с указанием их диаметра в мм.
Облачность - указаны через наклонную черту общая и нижняя облачность в баллах и высота нижней границы облаков в метрах; квадратными скобками обозначены формы облаков: Ci - перистые, Cs - перисто-слоистые, Cc - перисто-кучевые, Ac - высококучевые, As - высокослоистые, Sc - слоисто-кучевые, Ns - слоисто-дождевые, Cu - кучевые, Cb - кучево-дождевые. Подробнее классификацию облаков см. в Атласе облаков (PDF).
T - Температура воздуха - температура, измеренная на высоте 2 м над землей.
Td - Температура точки росы - температура, при понижении до которой содержащийся в воздухе водяной пар достигнет насыщения.
f - Относительная влажность воздуха - влажноcть воздуха, измеренная на высоте 2 м над землей.
Te - Эффективная температура - температура, которую ощущает одетый по сезону человек в тени. Характеристика душности погоды. При расчете учитывается влияние влажности воздуха и скорости ветра на теплоощущения человека.
Tes - Эффективная температура на солнце - температура, которую ощущает человек, с поправкой на солнечный нагрев. Характеристика знойности погоды. Зависит от высоты солнца над горизонтом, облачности и скорости ветра. Ночью, в пасмурную погоду, а также при ветре 12 м/с и более поправка равна нулю.
P - Атмосферное давление - приведенное к уровню моря атмосферное давление.
Po - Атмосферное давление - измеренное на уровне метеостанции атмосферное давление.
Tmin - Минимальная температура - минимум температуры воздуха на высоте 2 м над землей.
Tmax - Максимальная температура - максимум температуры воздуха на высоте 2 м над землей.
R - Количество осадков - Количество выпавших осадков за период времени, мм. При наведении курсора мыши на число - период времени, за который выпало указанное количество осадков.
R24 - Количество осадков - Количество выпавших осадков за 24 часа, мм.
S - Снежный покров - Высота снежного покрова, см. При наведении курсора мыши на число - состояние снежного покрова и степень покрытия местности в баллах.